Location: Brachstadt
(48.6975°N, 10.6755°E)
Time: 04:10:37
(UTC+00:00)

Terra - Pass Details

Date: 18 September 2020
Orbit: 701 x 703 km, 98.2° (Epoch: 29 October)

Event Time Altitude Azimuth Distance (km) Brightness Sun altitude
Exits shadow 21:57:48 20° 318° (NW) 1,625 4.2 -37.4°
Drops below altitude 10° 21:59:26 10° 330° (NNW) 2,183 5.1 -37.5°
Sets 22:01:53 0° 339° (NNW) 3,106 6.1 -37.7°
